Portada
METAR-TAF:

METAR-TAF

Aeroports :

Black River Falls, Wisconsin, Estats Units d'Amèrica

latitud: 44-15-03N, longitud: 090-51-19W, altitud: 255 m

Observació

L'informe es va fer fa 10 minuts, a les 19:15 UTC
Vent 7 kt del Oest
Temperatura -7°C
Humitat 100%
Pressió 1021 hPa
Visibilitat: 6.4 km
Cel cobert a una alçada de 600 ft
boirina

METAR: KBCK 101915Z AUTO 28007KT 4SM BR OVC006 M07/M07 A3015 RMK AO2 T10691074

Hora: 13:25 (19:25 UTC)


TAF: manca

Observacions i pronòstics meteorològics de més de 4000 aeroports (METAR i TAF).

Les estacions disponibles són els punts grocs i vermells al mapa.

Posi el ratolí al punt desitjat per veure el nom de l'estació.

Feu clic per veure les observacions i els pronòstics meteorològics.

Per canviar el mapa: feu clic els botons verds amb una creu de color negre per apropar; al botó verd amb un guió per allunyar la imatge; o en les fletxes verdes per a mapes adjacents.


METAR-TAF: